When you browse on this site, cookies collect data to enhance your experience and personalize the content and advertising you see.
Visit our Privacy Policy to learn more. By continuing to use the site, you agree to this use of cookies and data.
  • In Deutschland
  • Länderverzeichnis
  • Für 7 Tage
  • Wassertemperatur
  • Satellitenkarten
  • Wetterkarte
  • Widgets
  • user-avatar
    Anmelden

    Stündliche Wetter Oristano

    Heute, 12 Dezember, Mittwoch

    Zeit Temperatur Niederschläge Wind Luftdruck Luftfeuchtigkeit
    00:00 +11°C° 0 mm 3 m/S 763 mmHg 82%
    01:00 +11°C° 0 mm 3 m/S 763 mmHg 84%
    02:00 +11°C° 0 mm 3 m/S 762 mmHg 85%
    03:00 +11°C° 0 mm 3 m/S 762 mmHg 85%
    04:00 +10°C° 0 mm 3 m/S 762 mmHg 85%
    05:00 +10°C° 0 mm 3 m/S 762 mmHg 85%
    06:00 +10°C° 0 mm 3 m/S 762 mmHg 86%
    07:00 +10°C° 0 mm 3 m/S 762 mmHg 86%
    08:00 +11°C° 0 mm 3 m/S 762 mmHg 81%
    09:00 +12°C° 0 mm 3 m/S 762 mmHg 77%
    10:00 +13°C° 0 mm 3 m/S 762 mmHg 73%
    11:00 +14°C° 0 mm 3 m/S 762 mmHg 70%
    12:00 +14°C° 0 mm 4 m/S 762 mmHg 66%
    13:00 +15°C° 0 mm 4 m/S 762 mmHg 64%
    14:00 +16°C° 0 mm 3 m/S 762 mmHg 66%
    15:00 +14°C° 0 mm 3 m/S 761 mmHg 68%
    16:00 +14°C° 0 mm 3 m/S 761 mmHg 70%
    17:00 +12°C° 0 mm 3 m/S 761 mmHg 75%
    18:00 +12°C° 0 mm 2 m/S 761 mmHg 80%
    19:00 +10°C° 0 mm 2 m/S 761 mmHg 85%
    20:00 +10°C° 0 mm 2 m/S 761 mmHg 84%
    21:00 +10°C° 0 mm 2 m/S 761 mmHg 83%
    22:00 +10°C° 0 mm 2 m/S 761 mmHg 83%
    23:00 +10°C° 0 mm 2 m/S 760 mmHg 82%

    Morgen, 13 Dezember, Donnerstag

    Zeit Temperatur Niederschläge Wind Luftdruck Luftfeuchtigkeit
    00:00 +10°C° 0 mm 2 m/S 760 mmHg 82%
    01:00 +11°C° 0 mm 1 m/S 760 mmHg 81%
    02:00 +11°C° 0 mm 1 m/S 760 mmHg 83%
    03:00 +10°C° 0 mm 1 m/S 760 mmHg 84%
    04:00 +10°C° 0 mm 1 m/S 759 mmHg 86%
    05:00 +10°C° 0 mm 1 m/S 759 mmHg 86%
    06:00 +9°C° 0 mm 2 m/S 759 mmHg 85%
    07:00 +9°C° 0 mm 2 m/S 758 mmHg 85%
    08:00 +10°C° 0.1 mm 2 m/S 758 mmHg 82%
    09:00 +11°C° 0.1 mm 3 m/S 758 mmHg 79%
    10:00 +12°C° 0.1 mm 3 m/S 758 mmHg 76%
    11:00 +13°C° 0.2 mm 3 m/S 758 mmHg 77%
    12:00 +14°C° 0.2 mm 4 m/S 757 mmHg 77%
    13:00 +14°C° 0.2 mm 4 m/S 757 mmHg 77%
    14:00 +14°C° 0.8 mm 4 m/S 756 mmHg 82%
    15:00 +14°C° 0.8 mm 3 m/S 756 mmHg 86%
    16:00 +13°C° 0.8 mm 3 m/S 755 mmHg 91%
    17:00 +13°C° 0.6 mm 3 m/S 755 mmHg 92%
    18:00 +13°C° 0.6 mm 3 m/S 755 mmHg 94%
    19:00 +13°C° 0.6 mm 3 m/S 754 mmHg 95%
    20:00 +13°C° 0.6 mm 3 m/S 754 mmHg 95%
    21:00 +13°C° 0.6 mm 3 m/S 754 mmHg 95%
    22:00 +13°C° 0.6 mm 3 m/S 754 mmHg 95%
    23:00 +13°C° 1 mm 3 m/S 754 mmHg 94%

    übermorgen, 14 Dezember, Freitag

    Zeit Temperatur Niederschläge Wind Luftdruck Luftfeuchtigkeit
    00:00 +13°C° 1 mm 3 m/S 754 mmHg 94%
    01:00 +13°C° 1 mm 4 m/S 753 mmHg 93%
    02:00 +13°C° 0.5 mm 4 m/S 753 mmHg 94%
    03:00 +12°C° 0.5 mm 3 m/S 753 mmHg 94%
    04:00 +12°C° 0.5 mm 3 m/S 753 mmHg 94%
    05:00 +12°C° 0.4 mm 3 m/S 752 mmHg 94%
    06:00 +12°C° 0.4 mm 3 m/S 752 mmHg 93%
    07:00 +12°C° 0.4 mm 3 m/S 752 mmHg 93%
    08:00 +12°C° 0.4 mm 3 m/S 752 mmHg 91%
    09:00 +13°C° 0.4 mm 3 m/S 753 mmHg 89%
    10:00 +14°C° 0.4 mm 2 m/S 753 mmHg 87%
    11:00 +14°C° 0.1 mm 3 m/S 753 mmHg 83%
    12:00 +14°C° 0.1 mm 3 m/S 753 mmHg 80%
    13:00 +16°C° 0.1 mm 3 m/S 753 mmHg 76%
    14:00 +14°C° 0.1 mm 3 m/S 753 mmHg 78%
    15:00 +14°C° 0.1 mm 4 m/S 754 mmHg 80%
    16:00 +13°C° 0.1 mm 5 m/S 754 mmHg 82%
    17:00 +13°C° 0.1 mm 5 m/S 755 mmHg 83%
    18:00 +12°C° 0.1 mm 5 m/S 755 mmHg 84%
    19:00 +12°C° 0.1 mm 5 m/S 756 mmHg 85%
    20:00 +10°C° 0 mm 5 m/S 756 mmHg 85%
    21:00 +10°C° 0 mm 5 m/S 757 mmHg 85%
    22:00 +10°C° 0 mm 5 m/S 758 mmHg 84%
    23:00 +10°C° 0 mm 5 m/S 758 mmHg 85%

    15 Dezember, Samstag

    Zeit Temperatur Niederschläge Wind Luftdruck Luftfeuchtigkeit
    00:00 +9°C° 0 mm 6 m/S 758 mmHg 86%
    01:00 +9°C° 0 mm 6 m/S 759 mmHg 87%
    02:00 +9°C° 0 mm 6 m/S 759 mmHg 87%
    03:00 +9°C° 0 mm 6 m/S 759 mmHg 87%
    04:00 +9°C° 0 mm 6 m/S 760 mmHg 87%
    05:00 +9°C° 0 mm 5 m/S 760 mmHg 86%
    06:00 +8°C° 0 mm 5 m/S 761 mmHg 85%
    07:00 +8°C° 0 mm 5 m/S 761 mmHg 85%
    08:00 +9°C° 0 mm 5 m/S 761 mmHg 80%
    09:00 +10°C° 0 mm 5 m/S 762 mmHg 76%
    10:00 +12°C° 0 mm 5 m/S 762 mmHg 71%
    11:00 +11°C° 0 mm 6 m/S 763 mmHg 69%
    12:00 +13°C° 0 mm 6 m/S 763 mmHg 67%
    13:00 +13°C° 0 mm 6 m/S 763 mmHg 64%
    14:00 +13°C° 0 mm 6 m/S 763 mmHg 65%
    15:00 +11°C° 0 mm 6 m/S 763 mmHg 65%
    16:00 +11°C° 0 mm 6 m/S 763 mmHg 66%
    17:00 +10°C° 0 mm 5 m/S 763 mmHg 69%
    18:00 +9°C° 0 mm 5 m/S 763 mmHg 73%
    19:00 +8°C° 0 mm 4 m/S 764 mmHg 76%
    20:00 +8°C° 0 mm 4 m/S 764 mmHg 76%
    21:00 +9°C° 0 mm 3 m/S 764 mmHg 77%
    22:00 +8°C° 0 mm 3 m/S 764 mmHg 78%
    23:00 +8°C° 0 mm 3 m/S 764 mmHg 78%

    16 Dezember, Sonntag

    Zeit Temperatur Niederschläge Wind Luftdruck Luftfeuchtigkeit
    00:00 +8°C° 0 mm 3 m/S 764 mmHg 78%
    01:00 +8°C° 0 mm 2 m/S 764 mmHg 79%
    02:00 +8°C° 0 mm 2 m/S 764 mmHg 79%
    03:00 +8°C° 0 mm 2 m/S 764 mmHg 78%
    04:00 +8°C° 0 mm 2 m/S 764 mmHg 78%
    05:00 +9°C° 0 mm 1 m/S 764 mmHg 78%
    06:00 +9°C° 0 mm 1 m/S 764 mmHg 77%
    07:00 +9°C° 0 mm 1 m/S 764 mmHg 77%
    08:00 +11°C° 0 mm 1 m/S 764 mmHg 75%
    09:00 +12°C° 0 mm 1 m/S 764 mmHg 73%
    10:00 +13°C° 0 mm 2 m/S 764 mmHg 71%
    11:00 +14°C° 0 mm 2 m/S 764 mmHg 71%
    12:00 +15°C° 0 mm 2 m/S 764 mmHg 71%
    13:00 +17°C° 0 mm 3 m/S 763 mmHg 71%
    14:00 +16°C° 0 mm 3 m/S 763 mmHg 75%
    15:00 +16°C° 0 mm 3 m/S 763 mmHg 78%
    16:00 +16°C° 0 mm 3 m/S 762 mmHg 81%
    17:00 +16°C° 0 mm 3 m/S 762 mmHg 86%
    18:00 +14°C° 0 mm 3 m/S 762 mmHg 90%
    19:00 +14°C° 0 mm 4 m/S 762 mmHg 95%
    20:00 +14°C° 0.1 mm 4 m/S 762 mmHg 95%
    21:00 +14°C° 0.1 mm 4 m/S 762 mmHg 95%
    22:00 +15°C° 0.1 mm 4 m/S 762 mmHg 95%
    23:00 +15°C° 0 mm 4 m/S 762 mmHg 95%

    17 Dezember, Montag

    Zeit Temperatur Niederschläge Wind Luftdruck Luftfeuchtigkeit
    00:00 +14°C° 0 mm 4 m/S 762 mmHg 95%
    01:00 +14°C° 0 mm 4 m/S 762 mmHg 96%
    02:00 +14°C° 0 mm 4 m/S 762 mmHg 95%
    03:00 +13°C° 0 mm 4 m/S 762 mmHg 95%
    04:00 +13°C° 0 mm 4 m/S 762 mmHg 95%
    05:00 +13°C° 0 mm 4 m/S 763 mmHg 94%
    06:00 +13°C° 0 mm 4 m/S 763 mmHg 93%
    07:00 +13°C° 0 mm 4 m/S 763 mmHg 92%
    08:00 +13°C° 0.1 mm 4 m/S 763 mmHg 90%
    09:00 +14°C° 0.1 mm 4 m/S 763 mmHg 89%
    10:00 +14°C° 0.1 mm 4 m/S 764 mmHg 87%
    11:00 +14°C° 0.1 mm 4 m/S 764 mmHg 85%
    12:00 +14°C° 0.1 mm 4 m/S 763 mmHg 82%
    13:00 +14°C° 0.1 mm 4 m/S 763 mmHg 79%
    14:00 +14°C° 0.1 mm 5 m/S 763 mmHg 79%
    15:00 +14°C° 0.1 mm 5 m/S 764 mmHg 79%
    16:00 +13°C° 0.1 mm 5 m/S 764 mmHg 79%
    17:00 +13°C° 0.2 mm 5 m/S 764 mmHg 83%
    18:00 +12°C° 0.2 mm 5 m/S 764 mmHg 86%
    19:00 +10°C° 0.2 mm 5 m/S 765 mmHg 89%
    20:00 +10°C° 0.2 mm 5 m/S 765 mmHg 88%
    21:00 +10°C° 0.2 mm 6 m/S 766 mmHg 86%
    22:00 +10°C° 0.2 mm 6 m/S 766 mmHg 85%
    23:00 +10°C° 0 mm 6 m/S 766 mmHg 84%
    Mehr zeigen